Overview Statistics Trail Chart Weather Telemetry Raw packets
 

This is the latest recevied weather packets stored in our database for station/object LA4GY-1. If no packets are shown the sender has not sent any weather packets the latest 10 day(s).

<< 43 44 45 46 47 48 49 >>
Time Temp. Humidity Pressure Rain* Wind** Luminosity Snow
1787985332 15° C 82% 1007.4 hPa 0 mm - - -
1787984732 15° C 83% 1007.7 hPa 0 mm - - -
1787984132 14.44° C 83% 1007.7 hPa 0 mm - - -
1787983532 14.44° C 84% 1007.8 hPa 0 mm - - -
1787982942 14.44° C 84% 1008.1 hPa 0 mm - - -
1787982331 14.44° C 84% 1008.2 hPa 0 mm - - -
1787981731 14.44° C 84% 1008.3 hPa 0 mm - - -
1787981131 14.44° C 84% 1008.4 hPa 0 mm - - -
1787980531 14.44° C 83% 1008.3 hPa 0 mm - - -
1787979931 14.44° C 83% 1008.4 hPa 0 mm - - -
1787979335 14.44° C 83% 1008.5 hPa 0 mm - - -
1787978731 15° C 83% 1008.6 hPa 0 mm - - -
1787978131 15° C 81% 1008.6 hPa 0 mm - - -
1787977531 15.56° C 79% 1008.8 hPa 0 mm - - -
1787976931 15.56° C 75% 1008.9 hPa 0 mm - - -
1787976331 15.56° C 75% 1009 hPa 0 mm - - -
1787975731 15.56° C 76% 1009.1 hPa 0 mm - - -
1787975131 15.56° C 75% 1009.3 hPa 0 mm - - -
1787974531 15.56° C 77% 1009.4 hPa 0 mm - - -
1787973931 15.56° C 76% 1009.5 hPa 0 mm - - -
1787973331 15.56° C 76% 1009.6 hPa 0 mm - - -
1787972701 15.56° C 76% 1009.7 hPa 0 mm - - -
1787972101 15.56° C 76% 1009.8 hPa 0 mm - - -
1787971511 15° C 76% 1009.8 hPa 0 mm - - -
1787970901 15° C 77% 1009.8 hPa 0 mm - - -

* Rain latest hour (hover to see other rain measurements)
** Current wind speed in m/s (hover to see current wind gust speed)